Starlink 4151

operational
NORAD ID: 53034 Int'l Des: 2022-076 Owner: SPXS Country: US Constellation: starlink
LEOCIRCULAR

About Starlink 4151

Description loading...

Live Position

Loading 3D Globe...

Upcoming Passes

Altitude History

Altitude vs Time

uPlot chart will show altitude changes over time

Two-Line Element Set

1 53034U 22076BA 26062.47298620 .00000793 00000-0 67901-4 0 9992
2 53034 53.2167 102.0782 0001339 93.5130 266.6015 15.08828438202184
Epoch: Mar 3, 2026 • Age: 22 hours

Current Status

Altitude 554.1 km
Velocity 7.58 km/s
Sub-Earth Point -40.94°S, 75.41°W
Launch Date Jul 7, 2022
Age 3.6 years
Type internet

Technical Details

Classification Payload
Mass 297.00 kg
Dry Mass 275.00 kg
Total Mass 297.00 kg
Length 0.20 m
Diameter 2.80 m
Span 9.00 m
Shape Box + pan
Manufacturer SPXS
Bus Type Starlink
Phase Status In Orbit
Owner/State SPXS/US

Large Constellations

Loading constellations...